Main page
METAR-TAF:

METAR-TAF

Airports :

South Big Horn County Airport

Greybull, Wyoming, United States

latitude: 44-30-57N, longitude: 108-04-33W, elevation: 3933 ft

Current weather observation

The report was made 1 hour and 1 minutes ago, at 18:53 UTC
Wind 8 mph from the Southwest, varying between South and West
Temperature 36°F
Humidity 27%
Pressure 29.58 in. Hg
Visibility: 10 miles
Clear sky

METAR: KGEY 031853Z AUTO 23007KT 170V260 10SM CLR 02/M15 A2958 RMK AO2 SLP035 T00221150 $

Time: 12:54 (19:54 UTC)


TAF: missing

Weather observations and forecasts of more than 4000 airports (METAR and TAF reports).

The available stations are represented by yellow and red dots on the map.

Hover mouse over dot to see the name of the station.

Then click to see weather observations and forecasts.

To change the map : click on the green buttons with a black cross to zoom in, on the green button with a dash to zoom out, or on the green arrows for adjacent maps.


METAR-TAF: